Date String (YYYY-MM-DD hh:mm:ss) UTC,Instrument flags,Ambient pressure (hPa),Sample flow (lpm),Bypass flow (lpm),Sample temperature (°C),Ambient temperature (°C),ASC tube jacket temperature (°C),LED temperature (°C),Box temperature (°C),Sample RH (%),Span deviation,Mass concentration (μg/m³),Mass concentration (μg/m³),Mass concentration (μg/m³)
DateTimeUTC,F1_M11,P_M11,Q1_M11,Q2_M11,T1_M11,T2_M11,T3_M11,T4_M11,T5_M11,U1_M11,ZSPAN_M11,X2_M11,X0_M11,X1_M11
2022-12-26 02:00:00,,0827.0,4.97,0.00,21.8,20.8,00.0,30.5,23.5,15.9,0000.0,0000.55,0001.34,0000.48
2022-12-26 02:01:00,,0827.0,4.96,0.00,21.8,20.7,00.0,30.5,23.5,16.0,0000.0,0000.58,0001.39,0000.49
2022-12-26 02:02:00,,0826.9,5.02,0.00,21.7,20.6,00.0,30.5,23.5,15.9,0000.0,0000.60,0001.42,0000.51
2022-12-26 02:03:00,,0826.9,5.03,0.00,21.7,20.6,00.0,30.5,23.5,15.5,0000.0,0000.62,0001.53,0000.51
2022-12-26 02:04:00,,0826.9,5.02,0.00,21.7,20.5,00.0,30.5,23.5,15.8,0000.0,0000.63,0001.72,0000.51
2022-12-26 02:05:00,,0827.1,4.97,0.00,21.7,20.5,00.0,30.6,23.4,15.8,0000.0,0000.64,0001.81,0000.52
2022-12-26 02:06:00,,0826.9,4.97,0.00,21.7,20.5,00.0,30.5,23.4,15.8,0000.0,0000.64,0001.81,0000.52
2022-12-26 02:07:00,,0827.1,5.03,0.00,21.7,20.5,00.0,30.5,23.4,15.9,0000.0,0000.63,0001.81,0000.50
2022-12-26 02:08:00,,0827.1,5.04,0.00,21.7,20.5,00.0,30.6,23.4,16.1,0000.0,0000.62,0001.80,0000.49
2022-12-26 02:09:00,,0827.2,4.99,0.00,21.7,20.5,00.0,30.6,23.3,16.2,0000.0,0000.61,0001.82,0000.49
2022-12-26 02:10:00,,0827.2,4.96,0.00,21.7,20.5,00.0,30.6,23.3,16.2,0000.0,0000.63,0001.31,0000.49
2022-12-26 02:11:00,,0827.2,4.99,0.00,21.7,20.5,00.0,30.6,23.4,16.2,0000.0,0000.61,0001.27,0000.49
2022-12-26 02:12:00,,0827.1,5.01,0.00,21.7,20.5,00.0,30.6,23.5,16.2,0000.0,0000.59,0001.23,0000.48
2022-12-26 02:13:00,,0827.1,5.02,0.00,21.7,20.5,00.0,30.6,23.5,16.2,0000.0,0000.58,0001.21,0000.48
2022-12-26 02:14:00,,0827.0,4.98,0.00,21.7,20.6,00.0,30.6,23.5,16.0,0000.0,0000.55,0001.14,0000.47
2022-12-26 02:15:00,,0827.1,4.97,0.00,21.7,20.6,00.0,30.6,23.5,15.8,0000.0,0000.55,0000.95,0000.48
2022-12-26 02:16:00,,0827.2,5.02,0.00,21.7,20.6,00.0,30.6,23.5,15.7,0000.0,0000.55,0000.86,0000.48
2022-12-26 02:17:00,,0827.2,5.04,0.00,21.7,20.6,00.0,30.6,23.5,15.8,0000.0,0000.54,0000.83,0000.47
2022-12-26 02:18:00,,0827.2,5.00,0.00,21.7,20.6,00.0,30.6,23.6,16.0,0000.0,0000.53,0000.81,0000.47
2022-12-26 02:19:00,,0827.2,4.97,0.00,21.7,20.6,00.0,30.6,23.5,15.8,0000.0,0000.53,0000.80,0000.47
2022-12-26 02:20:00,,0827.1,4.97,0.00,21.7,20.6,00.0,30.6,23.6,16.0,0000.0,0000.52,0000.77,0000.47
2022-12-26 02:21:00,,0827.1,5.02,0.00,21.8,20.7,00.0,30.6,23.6,15.9,0000.0,0000.50,0000.69,0000.47
2022-12-26 02:22:00,,0827.1,5.02,0.00,21.8,20.7,00.0,30.6,23.6,15.7,0000.0,0000.50,0000.69,0000.46
2022-12-26 02:23:00,,0827.1,5.01,0.00,21.8,20.7,00.0,30.6,23.6,15.6,0000.0,0000.52,0000.74,0000.47
2022-12-26 02:24:00,,0827.0,4.98,0.00,21.8,20.7,00.0,30.6,23.6,15.5,0000.0,0000.53,0000.79,0000.46
2022-12-26 02:25:00,,0827.3,4.97,0.00,21.8,20.7,00.0,30.6,23.7,15.5,0000.0,0000.52,0000.77,0000.45
2022-12-26 02:26:00,,0827.2,5.02,0.00,21.8,20.7,00.0,30.7,23.7,15.5,0000.0,0000.50,0000.72,0000.44
2022-12-26 02:27:00,,0827.3,5.01,0.00,21.8,20.7,00.0,30.7,23.7,15.4,0000.0,0000.49,0000.70,0000.44
2022-12-26 02:28:00,,0827.4,5.00,0.00,21.8,20.7,00.0,30.7,23.7,15.2,0000.0,0000.49,0000.69,0000.44
2022-12-26 02:29:00,,0827.4,4.97,0.00,21.8,20.8,00.0,30.7,23.7,15.1,0000.0,0000.49,0000.70,0000.44
2022-12-26 02:30:00,,0827.3,4.98,0.00,21.8,20.8,00.0,30.7,23.7,15.1,0000.0,0000.51,0000.83,0000.44
2022-12-26 02:31:00,,0827.4,5.03,0.00,21.8,20.8,00.0,30.7,23.7,15.1,0000.0,0000.54,0000.98,0000.44
2022-12-26 02:32:00,,0827.4,5.02,0.00,21.9,20.8,00.0,30.7,23.7,15.1,0000.0,0000.55,0000.99,0000.44
2022-12-26 02:33:00,,0827.5,4.99,0.00,21.9,20.8,00.0,30.7,23.7,15.0,0000.0,0000.55,0000.98,0000.45
2022-12-26 02:34:00,,0827.4,4.97,0.00,21.9,20.8,00.0,30.7,23.8,15.0,0000.0,0000.54,0000.96,0000.44
2022-12-26 02:35:00,,0827.4,5.00,0.00,21.9,20.8,00.0,30.7,23.8,14.9,0000.0,0000.52,0000.90,0000.44
2022-12-26 02:36:00,,0827.4,5.03,0.00,21.9,20.8,00.0,30.7,23.8,14.7,0000.0,0000.53,0001.07,0000.43
2022-12-26 02:37:00,,0827.4,5.02,0.00,21.9,20.8,00.0,30.7,23.8,14.6,0000.0,0000.55,0001.63,0000.43
2022-12-26 02:38:00,,0827.5,4.97,0.00,21.9,20.9,00.0,30.7,23.8,14.6,0000.0,0000.56,0001.65,0000.43
2022-12-26 02:39:00,,0827.6,4.98,0.00,21.9,20.9,00.0,30.8,23.8,14.5,0000.0,0000.58,0001.72,0000.44
2022-12-26 02:40:00,,0827.5,5.02,0.00,21.9,20.9,00.0,30.8,23.8,14.6,0000.0,0000.59,0001.77,0000.43
2022-12-26 02:41:00,,0827.4,5.03,0.00,22.0,20.9,00.0,30.8,23.8,14.5,0000.0,0000.60,0001.78,0000.43
2022-12-26 02:42:00,,0827.3,4.99,0.00,22.0,20.9,00.0,30.8,23.9,14.1,0000.0,0000.56,0001.64,0000.41
2022-12-26 02:43:00,,0827.3,4.97,0.00,22.0,20.9,00.0,30.8,23.8,14.4,0000.0,0000.56,0001.63,0000.40
2022-12-26 02:44:00,,0827.4,4.99,0.00,22.0,20.9,00.0,30.8,23.8,14.5,0000.0,0000.56,0001.64,0000.39
2022-12-26 02:45:00,,0827.4,5.00,0.00,22.0,20.9,00.0,30.8,23.9,14.3,0000.0,0000.57,0001.67,0000.39
2022-12-26 02:46:00,,0827.4,5.02,0.00,22.0,20.9,00.0,30.8,23.8,14.4,0000.0,0000.57,0001.67,0000.38
2022-12-26 02:47:00,,0827.4,5.01,0.00,22.0,20.9,00.0,30.8,23.9,14.4,0000.0,0000.55,0001.49,0000.38
2022-12-26 02:48:00,,0827.4,4.98,0.00,22.0,20.9,00.0,30.8,23.9,14.3,0000.0,0000.52,0000.92,0000.37
2022-12-26 02:49:00,,0827.4,4.99,0.00,22.0,20.9,00.0,30.8,23.8,14.3,0000.0,0000.52,0000.90,0000.38
2022-12-26 02:50:00,,0827.4,5.04,0.00,22.0,20.9,00.0,30.8,23.8,15.1,0000.0,0000.55,0000.92,0000.42
2022-12-26 02:51:00,,0827.4,5.02,0.00,22.0,20.9,00.0,30.8,23.8,15.4,0000.0,0000.69,0001.65,0000.56
2022-12-26 02:52:00,,0827.4,4.97,0.00,22.0,20.9,00.0,30.8,23.9,15.3,0000.0,0000.77,0002.35,0000.66
2022-12-26 02:53:00,,0827.3,4.96,0.00,22.0,20.9,00.0,30.8,23.9,15.4,0000.0,0000.98,0002.76,0000.83
2022-12-26 02:54:00,,0827.2,5.02,0.00,22.0,20.9,00.0,30.8,23.9,15.1,0000.0,0001.15,0003.00,0000.98
2022-12-26 02:55:00,,0827.2,5.03,0.00,22.0,20.9,00.0,30.9,23.8,15.5,0000.0,0001.30,0003.18,0001.14
2022-12-26 02:56:00,,0827.3,5.01,0.00,22.0,20.9,00.0,30.9,23.9,15.1,0000.0,0001.40,0003.29,0001.27
2022-12-26 02:57:00,,0827.4,4.97,0.00,22.0,20.9,00.0,30.9,23.9,14.8,0000.0,0001.47,0003.38,0001.34
2022-12-26 02:58:00,,0827.4,4.98,0.00,22.0,20.9,00.0,30.9,23.8,15.2,0000.0,0001.62,0003.57,0001.48
2022-12-26 02:59:00,,0827.4,5.02,0.00,22.0,20.9,00.0,30.9,23.8,14.7,0000.0,0001.75,0003.72,0001.61
